Home > Weather > Constantine > Past weeks

Flag for Algeria Weather for the Past 2 Weeks in Constantine, Algeria

Now
64 °F

Scattered clouds.


Feels Like: 64 °F
Forecast: 56 / 67 °F
Wind: 5 mph from North

Location: Constantine Airport

Current Time: May 6, 2016 at 10:24:37 AM

Latest Report: May 6, 2016 at 10:00 AM


Visibility: N/A

Pressure: 29.92 "Hg (28.03 "Hg at 557m altitude)

Humidity: 83%

Dew Point: 59 °F

Location of ConstantineLocation

Historic Weather in Constantine — Graph

°F

Constantine Temperature Yesterday

Maximum temperature yesterday: 79 °F (at 1:00 PM)
Minimum temperature yesterday: 46 °F (at 5:30 AM)
Average temperature yesterday: 62 °F

High & Low Weather Summary for the Past Weeks

 TemperatureHumidityPressure
High79 °F (Apr 27, 3:00 PM)94% (Apr 21, 9:30 PM)30.24 "Hg (Apr 21, 9:30 PM)
Low37 °F (Apr 26, 5:30 AM)25% (May 4, 3:00 PM)29.83 "Hg (Apr 28, 4:00 AM)
Average58 °F69%30.03 "Hg
* Reported Apr 21 9:00 AM — May 6 9:00 AM, Constantine, Weather by CustomWeather, © 2016

Note: Actual official high and low records may vary slightly from our data, if they occured in-between our weather recording intervals... More about our weather records

Advertising

Constantine Weather History for the Previous 24 Hours

Scroll right to see more
 ConditionsComfort  
Time TempWeatherWind HumidityBarometerVisibility
9:00 AM
Fri, May 6
63 °FScattered clouds.2 mph77%29.92 "HgN/A
8:30 AM63 °FScattered clouds.2 mph83%29.92 "HgN/A
8:00 AM61 °FScattered clouds.5 mph88%29.92 "HgN/A
7:30 AM59 °FScattered clouds.3 mph88%29.92 "HgN/A
7:00 AM61 °FScattered clouds.2 mph94%29.92 "HgN/A
6:30 AM57 °FPartly sunny.No wind94%29.92 "HgN/A
6:00 AM55 °FPartly sunny.No wind94%29.92 "HgN/A
5:30 AM55 °FPassing clouds.No wind94%29.92 "HgN/A
5:00 AM55 °FPassing clouds.No wind94%29.92 "HgN/A
4:30 AM55 °FPassing clouds.No wind94%29.92 "HgN/A
4:00 AM55 °FPassing clouds.No wind94%29.92 "HgN/A
3:30 AM57 °FPartly cloudy.2 mph88%29.95 "Hg5 mi
3:00 AM57 °FPartly cloudy.2 mph88%29.95 "Hg5 mi
2:30 AM57 °FPartly cloudy.2 mph88%29.95 "Hg5 mi
2:00 AM57 °FPartly cloudy.2 mph88%29.95 "Hg5 mi
1:30 AM55 °FPartly cloudy.5 mph94%29.95 "Hg5 mi
1:00 AM57 °FPartly cloudy.5 mph94%29.98 "Hg5 mi
12:30 AM57 °FPartly cloudy.6 mph94%30.01 "Hg5 mi
12:00 AM57 °FPartly cloudy.6 mph94%30.01 "Hg5 mi
11:30 PM
Thu, May 5
57 °FPartly cloudy.6 mph94%30.01 "Hg5 mi
11:00 PM57 °FPartly cloudy.6 mph94%30.01 "Hg5 mi
10:30 PM57 °FPartly cloudy.6 mph94%30.01 "Hg5 mi
10:00 PM57 °FMostly cloudy.6 mph94%30.01 "Hg5 mi
9:30 PM57 °FMostly cloudy.5 mph88%30.01 "Hg5 mi
9:00 PM57 °FLight rain. Mostly cloudy.5 mph88%30.01 "Hg5 mi
8:30 PM59 °FLight rain. Mostly cloudy.5 mph82%30.01 "Hg4 mi
8:00 PM59 °FLight rain. Mostly cloudy.9 mph82%30.01 "Hg4 mi
7:30 PM59 °FLight rain. Partly cloudy.14 mph77%30.01 "Hg4 mi
7:00 PM61 °FBroken clouds.16 mph72%30.01 "Hg4 mi
6:30 PM70 °FBroken clouds.21 mph46%29.98 "Hg4 mi
6:00 PM70 °FBroken clouds.21 mph46%29.95 "Hg4 mi
5:30 PM73 °FBroken clouds.17 mph27%29.95 "HgN/A
5:00 PM73 °FBroken clouds.5 mph44%29.95 "HgN/A
4:30 PM75 °FBroken clouds.6 mph44%29.92 "HgN/A
4:00 PM75 °FBroken clouds.6 mph39%29.92 "HgN/A
3:30 PM75 °FBroken clouds.6 mph41%29.95 "HgN/A
3:00 PM75 °FBroken clouds.9 mph39%29.95 "HgN/A
2:30 PM77 °FBroken clouds.7 mph32%29.95 "HgN/A
2:00 PM79 °FBroken clouds.3 mph30%29.95 "HgN/A
1:30 PM79 °FSunny.2 mph26%29.95 "Hg10 mi
1:00 PM79 °FPassing clouds.6 mph30%29.95 "HgN/A
12:30 PM77 °FPassing clouds.6 mph28%29.95 "HgN/A
12:00 PM75 °FPassing clouds.3 mph34%29.98 "HgN/A
11:30 AM75 °FPassing clouds.3 mph36%29.98 "HgN/A
11:00 AM73 °FSunny.2 mph38%29.98 "Hg10 mi
10:30 AM72 °FSunny.2 mph41%29.98 "Hg10 mi
10:00 AM68 °FSunny.3 mph43%30.01 "Hg10 mi
Weather by CustomWeather, © 2016

See weather overviewHow to use our weather pages